SM6PGP-2 Weather Reports


Display with metric or nautical units.
time (UTC)temp
F
wind
direction
speed
MPH
gust
MPH
rain 1hr
in
rain 24hr
in
rain mn
in
humidity
%
barometer
mb
20260505022418 44 297 5.0 6.0 0.00 0.00 0.00 75 1007.3
20260505021914 44 274 7.0 15.0 0.00 0.00 0.00 75 1007.4
20260505021408 44 315 4.0 14.0 0.00 0.00 0.00 75 1007.4
20260505020903 44 279 5.0 8.0 0.00 0.00 0.00 74 1007.5
20260505020358 45 297 4.0 14.0 0.00 0.00 0.00 74 1007.4
20260505015852 45 288 4.0 11.0 0.00 0.00 0.00 74 1007.5
20260505015348 45 319 4.0 12.0 0.00 0.00 0.00 74 1007.3
20260505014842 45 283 7.0 16.0 0.00 0.00 0.00 75 1007.4
20260505014337 45 256 9.0 11.0 0.00 0.00 0.00 75 1007.4
20260505013832 45 337 1.0 11.0 0.00 0.00 0.00 76 1007.4
20260505013326 45 270 16.0 17.0 0.00 0.00 0.00 76 1007.4
20260505012822 45 261 3.0 8.0 0.00 0.00 0.00 76 1007.4
20260505012316 45 297 4.0 11.0 0.00 0.00 0.00 76 1007.5
20260505011811 45 270 6.0 15.0 0.00 0.00 0.00 76 1007.5
20260505011306 45 261 3.0 14.0 0.00 0.00 0.00 77 1007.6
20260505010800 45 261 8.0 9.0 0.00 0.00 0.00 77 1007.5
20260505010256 45 297 7.0 24.0 0.00 0.00 0.00 77 1007.6
20260505005750 44 288 7.0 18.0 0.00 0.00 0.00 77 1007.5
20260505005245 44 292 17.0 18.0 0.00 0.00 0.00 77 1007.4
20260505004740 44 238 7.0 11.0 0.00 0.00 0.00 77 1007.6
20260505004235 44 283 9.0 21.0 0.00 0.00 0.00 77 1007.5
20260505003730 44 270 10.0 20.0 0.00 0.00 0.00 77 1007.6
20260505003224 44 333 4.0 10.0 0.00 0.00 0.00 77 1007.7
20260505002719 44 297 6.0 19.0 0.00 0.00 0.00 77 1007.6
20260505002214 44 225 11.0 14.0 0.00 0.00 0.00 76 1007.5
20260505001709 44 324 8.0 10.0 0.00 0.00 0.00 76 1007.6
20260505001204 44 261 7.0 12.0 0.00 0.00 0.00 76 1007.5
20260505000658 44 45 2.0 9.0 0.00 0.00 0.00 77 1007.5
20260505000153 44 256 9.0 14.0 0.00 0.00 0.00 76 1007.4
20260504235648 44 252 9.0 16.0 0.00 0.00 0.00 76 1007.4
20260504235143 44 243 7.0 15.0 0.00 0.00 0.00 76 1007.5
20260504234638 44 274 10.0 18.0 0.00 0.00 0.00 76 1007.4
20260504234132 44 292 15.0 20.0 0.00 0.00 0.00 77 1007.5
20260504233627 44 261 7.0 16.0 0.00 0.00 0.00 76 1007.5
20260504233122 44 252 11.0 12.0 0.00 0.00 0.00 76 1007.5
20260504232617 44 225 7.0 9.0 0.00 0.00 0.00 76 1007.4
20260504232112 44 270 16.0 23.0 0.00 0.00 0.00 76 1007.5
20260504231606 44 279 15.0 18.0 0.00 0.00 0.00 75 1007.6
20260504231101 44 234 5.0 12.0 0.00 0.00 0.00 75 1007.6
20260504230556 44 270 7.0 16.0 0.00 0.00 0.00 75 1007.5
20260504230051 44 270 10.0 19.0 0.00 0.00 0.00 76 1007.5
20260504225546 44 252 16.0 20.0 0.00 0.00 0.00 75 1007.6
20260504225040 44 261 8.0 20.0 0.00 0.00 0.00 75 1007.6
20260504224535 44 270 11.0 20.0 0.00 0.00 0.00 75 1007.6
20260504224030 44 67 8.0 11.0 0.00 0.00 0.00 75 1007.7
20260504223525 44 261 9.0 16.0 0.00 0.00 0.00 75 1007.7
20260504223020 44 292 13.0 17.0 0.00 0.00 0.00 75 1007.7
20260504222514 44 270 18.0 18.0 0.00 0.00 0.00 74 1007.6
20260504222009 45 252 6.0 14.0 0.00 0.00 0.00 73 1007.7
20260504221504 45 265 11.0 16.0 0.00 0.00 0.00 73 1007.8
20260504220959 45 256 6.0 16.0 0.00 0.00 0.00 73 1007.9
20260504220454 45 274 13.0 15.0 0.00 0.00 0.00 72 1007.8
20260504215948 45 270 11.0 18.0 0.00 0.00 0.00 72 1007.8
20260504215443 45 261 11.0 14.0 0.00 0.00 0.00 72 1007.9
20260504214938 45 225 8.0 11.0 0.00 0.00 0.00 72 1007.9
20260504214433 45 261 9.0 13.0 0.00 0.00 0.00 71 1007.9
20260504213928 45 270 3.0 11.0 0.00 0.00 0.00 71 1008.0
20260504213422 45 45 3.0 16.0 0.00 0.00 0.00 71 1008.0
20260504212917 46 256 5.0 11.0 0.00 0.00 0.00 71 1008.0
20260504212412 46 288 11.0 11.0 0.00 0.00 0.00 71 1008.0
20260504211907 46 270 9.0 14.0 0.00 0.00 0.00 71 1007.9
20260504211402 46 243 8.0 9.0 0.00 0.00 0.00 70 1007.9
20260504210856 46 252 5.0 8.0 0.00 0.00 0.00 70 1008.0
20260504210351 46 225 11.0 14.0 0.00 0.00 0.00 70 1007.9
20260504205846 46 238 11.0 12.0 0.00 0.00 0.00 69 1007.9
20260504205341 46 225 6.0 9.0 0.00 0.00 0.00 70 1007.9
20260504204836 46 279 9.0 9.0 0.00 0.00 0.00 70 1007.9
20260504204330 46 252 5.0 15.0 0.00 0.00 0.00 70 1007.9
20260504203825 46 256 11.0 19.0 0.00 0.00 0.00 71 1007.8
20260504203320 46 270 15.0 18.0 0.00 0.00 0.00 70 1008.0
20260504202815 46 243 4.0 16.0 0.00 0.00 0.00 70 1007.8
20260504202310 46 274 10.0 17.0 0.00 0.00 0.00 70 1007.9
20260504201804 46 256 7.0 11.0 0.00 0.00 0.00 69 1007.9
20260504201259 46 270 10.0 11.0 0.00 0.00 0.00 69 1007.9
20260504200754 46 261 6.0 12.0 0.00 0.00 0.00 69 1007.8
20260504200249 46 265 5.0 11.0 0.00 0.00 0.00 67 1007.9
20260504195744 46 301 2.0 16.0 0.00 0.00 0.00 68 1008.0
20260504195238 46 256 10.0 13.0 0.00 0.00 0.00 67 1007.9
20260504194733 46 247 12.0 12.0 0.00 0.00 0.00 67 1007.9
20260504194228 46 216 8.0 12.0 0.00 0.00 0.00 66 1007.8
20260504193723 46 261 9.0 14.0 0.00 0.00 0.00 67 1007.9
20260504193218 46 225 8.0 15.0 0.00 0.00 0.00 66 1007.8
20260504192712 46 261 10.0 11.0 0.00 0.00 0.00 66 1007.9
20260504192207 46 225 6.0 16.0 0.00 0.00 0.00 66 1007.9
20260504191702 46 243 11.0 15.0 0.00 0.00 0.00 65 1007.7
20260504191157 46 247 7.0 10.0 0.00 0.00 0.00 65 1007.6
20260504190652 46 234 9.0 14.0 0.00 0.00 0.18 65 1007.7
20260504190146 47 265 11.0 11.0 0.00 0.00 0.18 65 1007.6
20260504185641 47 247 11.0 17.0 0.00 0.00 0.18 64 1007.6
20260504185136 47 238 8.0 17.0 0.00 0.00 0.18 64 1007.6
20260504184631 47 270 11.0 17.0 0.00 0.00 0.18 65 1007.6
20260504184126 47 238 13.0 13.0 0.00 0.00 0.18 64 1007.6
20260504183620 47 238 9.0 12.0 0.00 0.00 0.18 64 1007.5
20260504183115 47 256 11.0 17.0 0.00 0.00 0.18 63 1007.4
20260504182610 47 238 10.0 14.0 0.00 0.00 0.18 63 1007.5
20260504182105 48 270 15.0 15.0 0.00 0.00 0.18 62 1007.5
20260504181600 48 261 12.0 12.0 0.00 0.00 0.18 62 1007.5
20260504181054 48 265 6.0 15.0 0.00 0.00 0.18 62 1007.5
20260504180549 49 252 7.0 17.0 0.00 0.00 0.18 62 1007.4
20260504180044 49 301 11.0 16.0 0.00 0.00 0.18 62 1007.4
20260504175539 49 261 10.0 18.0 0.00 0.00 0.18 61 1007.2
20260504175034 49 279 15.0 20.0 0.00 0.00 0.18 62 1007.3
20260504174528 50 270 8.0 16.0 0.00 0.00 0.18 60 1007.4
20260504174023 50 270 4.0 9.0 0.00 0.00 0.18 60 1007.4
20260504173518 51 283 15.0 23.0 0.00 0.00 0.18 58 1007.3
20260504173013 51 270 20.0 20.0 0.00 0.00 0.18 58 1007.3
20260504172508 52 270 6.0 17.0 0.00 0.00 0.18 58 1007.3
20260504172002 52 225 12.0 18.0 0.00 0.00 0.18 56 1007.3
20260504171457 52 270 7.0 14.0 0.00 0.00 0.18 56 1007.3
20260504170952 52 270 8.0 12.0 0.00 0.00 0.18 55 1007.4
20260504170447 53 301 7.0 17.0 0.00 0.00 0.18 55 1007.2
20260504160344 54 315 7.0 11.0 0.00 0.00 0.18 43 1007.4
20260504150747 56 297 5.0 12.0 0.00 0.00 0.18 42 1007.3
20260504150242 56 315 4.0 19.0 0.00 0.00 0.18 42 1007.3
20260504141150 56 315 4.0 10.0 0.00 0.00 0.18 53 1007.3
20260504140645 56 301 7.0 12.0 0.00 0.00 0.18 51 1007.2
20260504140140 56 270 2.0 10.0 0.00 0.00 0.18 54 1007.1
20260504130542 53 252 13.0 19.0 0.00 0.00 0.18 61 1006.8
20260504110335 51 306 3.0 11.0 0.00 0.00 0.18 70 1005.9
20260504100232 51 225 5.0 14.0 0.00 0.00 0.18 70 1005.5
20260504090130 51 270 18.0 21.0 0.00 0.00 0.18 68 1005.2
20260504081543 51 225 16.0 19.0 0.00 0.00 0.18 71 1004.5
20260504081038 51 225 12.0 19.0 0.00 0.00 0.18 71 1004.5
20260504080533 51 252 16.0 19.0 0.00 0.00 0.18 70 1004.4
20260504050731 47 225 2.0 4.0 0.00 0.00 0.18 92 1003.1
20260504050226 47 225 2.0 4.0 0.00 0.00 0.18 93 1003.0
20260504045212 47 180 3.0 3.0 0.00 0.00 0.18 92 1003.0
20260504044707 47 225 3.0 3.0 0.00 0.00 0.18 92 1003.0
20260504044202 47 180 1.0 5.0 0.00 0.00 0.18 92 1003.0
20260504043657 47 243 4.0 4.0 0.00 0.00 0.18 93 1003.1
20260504043151 47 180 1.0 2.0 0.00 0.00 0.18 93 1003.0
20260504042646 47 135 0.0 0.0 0.00 0.00 0.18 93 1003.1
20260504042141 46 135 0.0 2.0 0.00 0.00 0.18 92 1003.0
20260504041636 46 135 2.0 2.0 0.00 0.00 0.18 92 1003.0
20260504041131 46 135 0.0 0.0 0.00 0.00 0.18 92 1003.0
20260504040625 46 135 0.0 0.0 0.00 0.00 0.18 92 1003.1
20260504040120 46 135 0.0 0.0 0.00 0.00 0.18 92 1002.9
20260504035615 46 135 0.0 0.0 0.00 0.00 0.18 92 1003.0
20260504035110 46 135 0.0 1.0 0.00 0.00 0.18 92 1003.0
20260504034605 46 135 2.0 3.0 0.00 0.00 0.18 91 1002.9
20260504034059 47 225 3.0 3.0 0.00 0.00 0.18 91 1003.1
20260504033554 47 225 1.0 1.0 0.00 0.00 0.18 92 1003.1
20260504033049 47 225 1.0 2.0 0.00 0.00 0.18 91 1003.1
20260504032544 47 40 1.0 3.0 0.00 0.00 0.18 91 1003.2
20260504032039 48 328 0.0 5.0 0.00 0.00 0.18 92 1003.2
20260504031533 48 270 2.0 5.0 0.00 0.00 0.18 91 1003.3
20260504031028 48 270 4.0 6.0 0.00 0.00 0.18 91 1003.2
20260504030523 48 270 3.0 8.0 0.00 0.00 0.18 92 1003.3
20260504030018 48 180 1.0 2.0 0.00 0.00 0.18 92 1003.4
20260504025513 48 135 2.0 2.0 0.00 0.00 0.18 91 1003.3
20260504025007 48 135 1.0 1.0 0.00 0.00 0.18 91 1003.4
20260504024502 48 135 1.0 1.0 0.00 0.00 0.18 91 1003.4
20260504023957 48 180 1.0 2.0 0.00 0.00 0.18 91 1003.4
20260504023452 48 180 1.0 2.0 0.00 0.00 0.18 91 1003.4
20260504022947 48 180 2.0 2.0 0.00 0.00 0.18 91 1003.5